Weather Roundup
Issued by NWS Corpus Christi, TX

Home | Current Version | Previous Version | Text Only | Print | Product List | Glossary On
Versions: 1 2 3 4 5 6 7 8 9 10 11 12 13 14 15 16 17 18 19 20 21 22 23 24 25 26 27 28 29 30 31 32 33 34 35 36 37 38 39 40 41 42 43 44 45 46 47 48 49 50
000
ASUS44 KCRP 221710
HRRCRP

SOUTH TEXAS REGIONAL WEATHER ROUNDUP
NATIONAL WEATHER SERVICE CORPUS CHRISTI TX
1200 PM CDT SAT JUL 22 2017


TXZ229>244-221800-
...CORPUS CHRISTI AREA OBSERVATIONS...

CITY           SKY/WX    TMP DP  RH WIND       PRES   REMARKS
CORPUS CHRISTI PTSUNNY   92  74  55 SE13G18   29.97F HX 101
NAS CORPUS CHR PTSUNNY   92  77  61 S15       29.98S HX 105
ROCKPORT       MOSUNNY   92  74  55 S12G20    29.97F HX 101
KINGSVILLE NAS SUNNY     96  73  47 S13       29.96F HX 105
ALICE          SUNNY     94  70  45 S10       29.96F HX 100
ORANGE GROVE   SUNNY    N/A N/A N/A S9G20     29.97F
FALFURRIAS     SUNNY     93  70  47 SE13G18   29.96S HX  99
$$

...VICTORIA AREA OBSERVATIONS...

CITY           SKY/WX    TMP DP  RH WIND       PRES   REMARKS
VICTORIA       SUNNY     94  70  45 S10       29.98F HX 100
BEEVILLE       FAIR      93  74  53 SE10G16   29.98S HX 102
PLEASANTON     SUNNY     92  70  48 S6        29.98S HX  98
SAN ANTONIO    MOSUNNY   90  69  50 S10       30.00F HX  94
$$

...LAREDO AREA OBSERVATIONS...

CITY           SKY/WX    TMP DP  RH WIND       PRES   REMARKS
LAREDO         SUNNY     93  72  50 SE10G18   29.98  HX 101
COTULLA        SUNNY     93  69  45 SE10      29.96S HX  98
DEL RIO        SUNNY     90  71  53 SE9       29.95F HX  96
MCALLEN        MOSUNNY   96  70  42 SE18G28   29.95S HX 102
HEBBRONVILLE   SUNNY     91  67  44 S13G18    29.98S HX  94
$$

...OTHER TEXAS OBSERVATIONS...

CITY           SKY/WX    TMP DP  RH WIND       PRES   REMARKS
BROWNSVILLE    MOSUNNY   91  74  57 S18G26    29.98S HX 100
HOUSTON        PTSUNNY   92  76  59 W7        29.99F HX 104
COL. STATION   MOSUNNY   91  73  55 S7        29.98F HX  99
AUSTIN         PTSUNNY   93  70  46 S9        29.98S HX  99
WACO           SUNNY     95  71  45 S8        29.97F HX 102
FORT WORTH     MOSUNNY   95  74  50 S8        29.93F HX 105
WICHITA FALLS  SUNNY     97  67  37 W9        29.91F HX 101
LUBBOCK        MOSUNNY   88  61  40 S10       30.06F
EL PASO        PTSUNNY   80  65  59 S6        30.10S
$$

...MARINE OBSERVATIONS...

STATION/POSITION TIME  SKY/WX   TEMP    WIND        PRES    VSBY  WAVE   SWELL
                                AIR SEA DIR/SP/G                  HT/PER HT/PER
                 (UTC)          (F)     (DEG/KT/KT) (MB)    (MI)  (FT/S) (FT/S)
PORT ARANSAS     1700            85 87  160/ 12/ 13 1015.6F
BUOY 90 E PORT A 1550            85 86  200/ 10/ 12 1016.3          2/ 4   2/ 5
BUOY 45 SE BAFFI 1550            85     170/ 10/ 12 1014.6          3/ 5   2/ 5
BUOY 200 E PT IS 1550            86 87  190/  8/ 10 1017.0          1/ 4
BUOY 15 E GALVES 1550            80 86  150/ 10/ 12 1016.3          1/ 4
$$



USA.gov is the U.S. government's official web portal to all federal, state and local government web resources and services.